• Join FlightAware (Why Join?)
  • Login
  • US Flag 
01:23PM EDT


 

Airport Tracker/Info


-or-


 

Live Flight TrackerFlight Track Log ✈ DLH325 ✈ 25-Aug-2013 ✈ LIPZ / VCE - EDDF / FRA

Flight Track Log - Related Links

Times and Time Zones

All times are in EDT time to prevent confusion due to time zone crossing. See the DLH325 flight status page for this flight to view local times or setup timezone preferences in your user account.

Time Position Orientation Groundspeed Altitude Reporting Facility
EDT Latitude Longitude Course Direction KTS MPH feet Rate Location/Type
04:24AM 45.5220 12.3750 46° Northeast 163 188 1,400  Level FlightAware
04:25AM 45.5310 12.3890 47° Northeast 166 191 2,100 2,280 Climbing FlightAware
04:25AM 45.5340 12.3950 54° Northeast 170 196 2,400 2,400 Climbing FlightAware
04:25AM 45.5360 12.4070 77° East 174 200 2,700 1,920 Climbing FlightAware
04:25AM 45.5340 12.4250 99° East 182 209 3,200 1,500 Climbing FlightAware
04:26AM 45.5310 12.4550 98° East 203 234 3,700 1,860 Climbing FlightAware
04:26AM 45.5280 12.4820 99° East 207 238 4,600 2,460 Climbing FlightAware
04:26AM 45.5260 12.4960 102° East 206 237 5,000 2,400 Climbing FlightAware
04:26AM 45.5220 12.5080 115° Southeast 204 235 5,400 2,400 Climbing FlightAware
04:26AM 45.5100 12.5220 141° Southeast 203 234 6,000 2,400 Climbing FlightAware
04:27AM 45.5060 12.5240 161° South 203 234 6,200 1,800 Climbing FlightAware
04:27AM 45.5020 12.5260 161° South 194 223 6,300 1,980 Climbing FlightAware
04:27AM 45.4970 12.5260 180° South 193 222 6,500 1,380 Climbing FlightAware
04:27AM 45.4780 12.5090 212° Southwest 212 244 7,000 1,200 Climbing FlightAware
04:27AM 45.4760 12.5020 248° West 222 255 7,100 1,200 Climbing FlightAware
04:27AM 45.4750 12.4950 258° West 231 266 7,200 1,260 Climbing FlightAware
04:28AM 45.4890 12.4570 298° West 267 307 7,800 1,920 Climbing FlightAware
04:28AM 45.5060 12.4290 311° West 275 316 8,700 2,700 Climbing FlightAware
04:28AM 45.5220 12.4030 311° West 277 319 9,600 2,280 Climbing FlightAware
04:29AM 45.5520 12.3530 311° West 298 343 10,800 1,680 Climbing FlightAware
04:30AM 45.5860 12.2940 309° West 335 386 11,600 1,620 Climbing FlightAware
04:30AM 45.6220 12.2340 311° West 359 413 12,700 2,340 Climbing FlightAware
04:31AM 45.6570 12.1730 309° West 354 407 14,400 2,640 Climbing FlightAware
04:31AM 45.6970 12.1090 312° West 366 421 15,800 2,160 Climbing FlightAware
04:32AM 45.7370 12.0440 311° West 371 427 17,000 2,100 Climbing FlightAware
04:32AM 45.7740 11.9840 311° West 375 432 18,300 2,040 Climbing FlightAware
04:33AM 45.8120 11.9230 312° West 388 447 19,200 1,860 Climbing FlightAware
04:34AM 45.8630 11.8420 312° West 404 465 20,500 1,920 Climbing FlightAware
04:34AM 45.9120 11.7630 312° West 409 471 21,700 1,800 Climbing FlightAware
04:35AM 45.9510 11.7010 312° West 415 478 22,600 1,740 Climbing FlightAware
04:35AM 45.9950 11.6310 312° West 414 476 23,600 1,500 Climbing FlightAware
04:36AM 46.0420 11.5570 312° West 426 490 24,400 1,440 Climbing FlightAware
04:37AM 46.0870 11.4860 312° West 432 497 25,300 1,500 Climbing FlightAware
04:37AM 46.1270 11.4390 321° Northwest 446 513 25,900 1,320 Climbing FlightAware
04:38AM 46.1990 11.3980 338° Northwest 457 526 26,600 1,200 Climbing FlightAware
04:38AM 46.2560 11.3690 341° North 462 532 27,200 1,260 Climbing FlightAware
04:39AM 46.3270 11.3320 340° North 464 534 28,000 1,080 Climbing FlightAware
04:39AM 46.4090 11.2900 341° North 463 533 28,600 1,200 Climbing FlightAware
04:40AM 46.4800 11.2500 339° North 469 540 29,500 1,500 Climbing FlightAware
04:40AM 46.5410 11.2150 338° Northwest 465 535 30,300 1,380 Climbing FlightAware
04:41AM 46.6080 11.1760 338° Northwest 452 520 31,100 1,020 Climbing FlightAware
04:42AM 46.6820 11.1340 339° North 448 516 31,600 840 Climbing FlightAware
04:42AM 46.7480 11.0950 338° Northwest 452 520 32,100 960 Climbing FlightAware
04:43AM 46.8370 11.0430 338° Northwest 455 524 32,800 1,020 Climbing FlightAware
04:44AM 46.9170 10.9960 338° Northwest 454 522 33,600 960 Climbing FlightAware
04:44AM 46.9790 10.9600 338° Northwest 456 525 34,000 300 Climbing FlightAware
04:45AM 47.0550 10.9140 338° Northwest 459 528 34,000  Level FlightAware
04:45AM 47.1190 10.8650 332° Northwest 459 528 34,000  Level FlightAware
04:46AM 47.1840 10.8130 331° Northwest 460 529 34,000  Level FlightAware
04:46AM 47.2490 10.7600 331° Northwest 462 532 34,000  Level FlightAware
04:47AM 47.3170 10.7040 331° Northwest 463 533 34,000  Level FlightAware
04:48AM 47.3820 10.6510 331° Northwest 464 534 34,000  Level FlightAware
04:48AM 47.4550 10.5910 331° Northwest 464 534 34,000  Level FlightAware
04:49AM 47.5150 10.5410 331° Northwest 464 534 34,000  Level FlightAware
04:49AM 47.5710 10.4950 331° Northwest 463 533 34,000 -420 Level FlightAware
04:50AM 47.6470 10.4320 331° Northwest 455 524 33,500 -1,080 Descending FlightAware
04:51AM 47.7160 10.3750 331° Northwest 451 519 32,600 -1,500 Descending FlightAware
04:51AM 47.7720 10.3260 330° Northwest 458 527 31,800 -1,500 Descending FlightAware
04:52AM 47.8380 10.2650 328° Northwest 457 526 30,900 -1,620 Descending FlightAware
04:52AM 47.8960 10.2110 328° Northwest 458 527 30,000 -1,680 Descending FlightAware
04:53AM 47.9590 10.1530 328° Northwest 458 527 29,000 -1,860 Descending FlightAware
04:54AM 48.0230 10.0930 328° Northwest 458 527 27,800 -2,220 Descending FlightAware
04:54AM 48.0950 10.0260 328° Northwest 459 528 26,300 -2,160 Descending FlightAware
04:55AM 48.1620 9.9640 328° Northwest 446 513 25,100 -2,100 Descending FlightAware
04:55AM 48.2280 9.9020 328° Northwest 433 498 23,700 -2,100 Descending FlightAware
04:56AM 48.2810 9.8550 329° Northwest 423 487 22,700 -1,560 Descending FlightAware
04:57AM 48.3400 9.8050 331° Northwest 407 468 22,000 -600 Descending FlightAware
04:57AM 48.4090 9.7780 345° North 410 472 22,000  Level FlightAware
04:58AM 48.4770 9.7580 349° North 414 476 22,000  Level FlightAware
04:58AM 48.5430 9.7390 349° North 416 479 22,000  Level FlightAware
04:59AM 48.6040 9.7210 349° North 414 476 22,000  Level FlightAware
04:59AM 48.6740 9.7010 349° North 415 478 22,000  Level FlightAware
05:00AM 48.7350 9.6830 349° North 414 476 22,000  Level FlightAware
05:01AM 48.8030 9.6640 350° North 414 476 22,000  Level FlightAware
05:01AM 48.8700 9.6440 349° North 417 480 22,000  Level FlightAware
05:02AM 48.9380 9.6240 349° North 418 481 22,000 -180 Level FlightAware
05:02AM 49.0010 9.6060 349° North 417 480 21,800 -1,200 Descending FlightAware
05:03AM 49.0660 9.5870 349° North 410 472 20,700 -2,100 Descending FlightAware
05:04AM 49.1370 9.5660 349° North 398 458 19,300 -2,100 Descending FlightAware
05:04AM 49.1920 9.5500 349° North 390 449 18,300 -2,100 Descending FlightAware
05:05AM 49.2590 9.5300 349° North 381 438 16,900 -2,160 Descending FlightAware
05:05AM 49.3160 9.5130 349° North 374 430 15,800 -1,740 Descending FlightAware
05:06AM 49.3730 9.4960 349° North 365 420 15,000 -720 Descending FlightAware
05:06AM 49.4340 9.4780 349° North 366 421 15,000  Level FlightAware
05:07AM 49.4900 9.4610 349° North 373 429 15,000  Level FlightAware
05:08AM 49.5490 9.4430 349° North 376 433 15,000 -300 Level FlightAware
05:08AM 49.6130 9.4240 349° North 376 433 14,700 -960 Descending FlightAware
05:09AM 49.6690 9.4070 349° North 371 427 13,900 -1,560 Descending FlightAware
05:09AM 49.7230 9.3910 349° North 365 420 13,000 -1,620 Descending FlightAware
05:10AM 49.7840 9.3730 349° North 358 412 12,100 -1,620 Descending FlightAware
05:11AM 49.8390 9.3520 346° North 347 399 11,100 -1,620 Descending FlightAware
05:11AM 49.8520 9.3390 327° Northwest 337 388 10,900 -1,140 Descending FlightAware
05:11AM 49.8660 9.3250 327° Northwest 328 377 10,700 -960 Descending FlightAware
05:11AM 49.8970 9.3130 346° North 314 361 10,400 -720 Descending FlightAware
05:12AM 49.9410 9.3030 352° North 289 333 10,100 -360 Descending FlightAware
05:12AM 49.9880 9.2930 352° North 279 321 10,000 -120 Descending FlightAware
05:13AM 50.0180 9.2850 350° North 283 326 10,000 -180 Level FlightAware
05:13AM 50.0330 9.2820 353° North 282 325 9,900 -720 Descending FlightAware
05:13AM 50.0590 9.2750 350° North 276 318 9,600 -720 Descending FlightAware
05:14AM 50.0870 9.2680 351° North 276 318 9,400 -540 Descending FlightAware
05:14AM 50.1040 9.2640 351° North 276 318 9,300 -420 Descending FlightAware
05:14AM 50.1250 9.2590 351° North 264 304 9,200 -480 Descending FlightAware
05:15AM 50.1530 9.2520 351° North 249 287 9,000 -540 Descending FlightAware
05:15AM 50.1800 9.2450 351° North 243 280 8,800 -600 Descending FlightAware
05:15AM 50.1970 9.2410 351° North 243 280 8,600 -540 Descending FlightAware
05:16AM 50.2190 9.2350 350° North 244 281 8,500 -420 Descending FlightAware
05:16AM 50.2330 9.2320 352° North 244 281 8,400 -480 Descending FlightAware
05:16AM 50.2500 9.2250 345° North 244 281 8,300 -540 Descending FlightAware
05:16AM 50.2580 9.2170 327° Northwest 244 281 8,200 -540 Descending FlightAware
05:16AM 50.2610 9.2120 313° West 244 281 8,200  Level FlightAware
05:16AM 50.2650 9.2000 298° West 244 281 8,200 -420 Level FlightAware
05:17AM 50.2680 9.1890 293° West 245 282 8,100 -540 Descending FlightAware
05:17AM 50.2680 9.1810 270° West 246 283 8,100  Level FlightAware
05:17AM 50.2610 9.1460 253° West 250 288 8,100 -240 Level FlightAware
05:17AM 50.2510 9.1310 224° Southwest 252 290 8,000 -240 Descending FlightAware
05:17AM 50.2350 9.1090 221° Southwest 256 295 8,000  Level FlightAware
05:18AM 50.2160 9.0830 221° Southwest 256 295 8,000 -300 Level FlightAware
05:18AM 50.1980 9.0600 219° Southwest 243 280 7,800 -720 Descending FlightAware
05:19AM 50.1780 9.0330 221° Southwest 233 268 7,500 -960 Descending FlightAware
05:19AM 50.1620 9.0090 224° Southwest 232 267 7,100 -1,260 Descending FlightAware
05:19AM 50.1570 8.9990 232° Southwest 231 266 6,900 -1,320 Descending FlightAware
05:19AM 50.1480 8.9660 247° West 227 261 6,500 -780 Descending FlightAware
05:20AM 50.1410 8.9370 249° West 213 245 6,400 -720 Descending FlightAware
05:20AM 50.1360 8.9150 250° West 207 238 6,100 -1,020 Descending FlightAware
05:20AM 50.1320 8.8960 252° West 200 230 5,900 -1,200 Descending FlightAware
05:21AM 50.1240 8.8610 250° West 197 227 5,300 -1,320 Descending FlightAware
05:21AM 50.1170 8.8340 248° West 192 221 4,900 -1,140 Descending FlightAware
05:21AM 50.1100 8.8040 250° West 184 212 4,500 -1,020 Descending FlightAware
05:22AM 50.1040 8.7810 248° West 179 206 4,200 -1,200 Descending FlightAware
05:22AM 50.0990 8.7550 253° West 183 211 3,700 -1,320 Descending FlightAware
05:22AM 50.0940 8.7350 249° West 180 207 3,400 -1,200 Descending FlightAware
05:23AM 50.0880 8.7110 249° West 180 207 3,000 -1,140 Descending FlightAware
05:23AM 50.0850 8.6970 252° West 178 205 2,800 -1,200 Descending FlightAware
05:23AM 50.0780 8.6680 249° West 175 201 2,300 -960 Descending FlightAware
05:24AM 50.0720 8.6440 249° West 163 188 2,100 -780 Descending FlightAware
05:24AM 50.0690 8.6320 249° West 158 182 1,900 -960 Descending FlightAware
05:24AM 50.0640 8.6110 250° West 151 174 1,600 -900 Descending FlightAware
05:24AM 50.0590 8.5890 251° West 151 174 1,300 -960 Descending FlightAware
05:25AM 50.0530 8.5650 249° West 143 165 900 -960 Descending FlightAware
05:25AM 50.0490 8.5460 252° West 141 162 600 -780 Descending FlightAware
05:25AM 50.0440 8.5280 247° West 143 165 400 -600 Descending FlightAware